カタログに戻る

ONEWEB-0198

運用中通信PO
NORAD 48216·PAYLOAD·🇬🇧 United Kingdom

打ち上げ Apr 25, 2021 から Vostochny Cosmodrome

Loading…

次のパス (今後24時間)

TLE

最新Source: CelesTrak SupGP

元期: Sep 14, 2026, 16:28 UTC

1 48216C 21031G   26257.68660139 -.00001802  00000+0 -48680-2 0  2576
2 48216  87.8878 271.8546 0001549  85.5338  14.5011 13.14500852    15

AllMySatでONEWEB-0198をリアルタイム追跡

Download on the App Store